• In Deutschland
  • Länderverzeichnis
  • Für 7 Tage
  • Wassertemperatur
  • Satellitenkarten
  • Wetterkarte
  • Widgets
  • user-avatar
    Anmelden

    Stündliche Wetter Albany

    Heute, 20 September, Mittwoch

    Zeit Temperatur Niederschläge Wind Luftdruck Luftfeuchtigkeit
    00:00 +12°C° 0,1 mm 5 m/S 755 mmHg 85%
    01:00 +12°C° 0,1 mm 5 m/S 755 mmHg 85%
    02:00 +12°C° 0 mm 5 m/S 754 mmHg 86%
    03:00 +12°C° 0,1 mm 5 m/S 754 mmHg 85%
    04:00 +12°C° 0,1 mm 5 m/S 754 mmHg 85%
    05:00 +12°C° 0,1 mm 5 m/S 754 mmHg 84%
    06:00 +13°C° 0,1 mm 5 m/S 754 mmHg 82%
    07:00 +13°C° 0,1 mm 5 m/S 755 mmHg 80%
    08:00 +14°C° 0 mm 7 m/S 754 mmHg 75%
    09:00 +15°C° 0,1 mm 6 m/S 754 mmHg 69%
    10:00 +17°C° 0,1 mm 6 m/S 754 mmHg 63%
    11:00 +19°C° 0,1 mm 6 m/S 754 mmHg 57%
    12:00 +19°C° 0 mm 5 m/S 754 mmHg 58%
    13:00 +19°C° 0 mm 5 m/S 754 mmHg 58%
    14:00 +19°C° 0 mm 4 m/S 753 mmHg 58%
    15:00 +19°C° 0 mm 4 m/S 753 mmHg 61%
    16:00 +19°C° 0 mm 3 m/S 753 mmHg 64%
    17:00 +19°C° 0 mm 2 m/S 752 mmHg 68%
    18:00 +18°C° 0 mm 3 m/S 752 mmHg 71%
    19:00 +17°C° 0 mm 4 m/S 752 mmHg 74%
    20:00 +15°C° 0 mm 5 m/S 752 mmHg 79%
    21:00 +15°C° 0 mm 5 m/S 752 mmHg 81%
    22:00 +15°C° 0 mm 6 m/S 752 mmHg 82%
    23:00 +16°C° 0 mm 7 m/S 751 mmHg 84%

    Morgen, 21 September, Donnerstag

    Zeit Temperatur Niederschläge Wind Luftdruck Luftfeuchtigkeit
    00:00 +15°C° 0 mm 7 m/S 751 mmHg 85%
    01:00 +15°C° 0 mm 7 m/S 750 mmHg 87%
    02:00 +15°C° 0 mm 6 m/S 750 mmHg 88%
    03:00 +15°C° 0,3 mm 6 m/S 749 mmHg 90%
    04:00 +15°C° 0,3 mm 6 m/S 748 mmHg 91%
    05:00 +15°C° 0,3 mm 6 m/S 748 mmHg 93%
    06:00 +16°C° 0,6 mm 7 m/S 747 mmHg 91%
    07:00 +17°C° 0,6 mm 8 m/S 746 mmHg 89%
    08:00 +17°C° 0,6 mm 9 m/S 746 mmHg 87%
    09:00 +17°C° 1 mm 10 m/S 745 mmHg 87%
    10:00 +17°C° 1 mm 10 m/S 745 mmHg 87%
    11:00 +17°C° 1 mm 11 m/S 744 mmHg 87%
    12:00 +17°C° 1,6 mm 11 m/S 744 mmHg 85%
    13:00 +17°C° 1,6 mm 12 m/S 744 mmHg 83%
    14:00 +15°C° 1,6 mm 12 m/S 744 mmHg 81%
    15:00 +17°C° 0 mm 11 m/S 745 mmHg 73%
    16:00 +17°C° 0 mm 10 m/S 745 mmHg 66%
    17:00 +17°C° 0 mm 10 m/S 745 mmHg 58%
    18:00 +16°C° 0 mm 9 m/S 746 mmHg 61%
    19:00 +15°C° 0 mm 9 m/S 746 mmHg 63%
    20:00 +13°C° 0 mm 9 m/S 747 mmHg 66%
    21:00 +13°C° 0,1 mm 9 m/S 747 mmHg 68%
    22:00 +13°C° 0,1 mm 9 m/S 747 mmHg 71%
    23:00 +12°C° 0,1 mm 9 m/S 747 mmHg 73%

    übermorgen, 22 September, Freitag

    Zeit Temperatur Niederschläge Wind Luftdruck Luftfeuchtigkeit
    00:00 +12°C° 0,1 mm 9 m/S 746 mmHg 74%
    01:00 +12°C° 0,1 mm 8 m/S 746 mmHg 75%
    02:00 +12°C° 0,1 mm 8 m/S 745 mmHg 76%
    03:00 +12°C° 0,2 mm 8 m/S 745 mmHg 76%
    04:00 +12°C° 0,2 mm 8 m/S 744 mmHg 77%
    05:00 +12°C° 0,2 mm 8 m/S 744 mmHg 77%
    06:00 +12°C° 0,8 mm 9 m/S 743 mmHg 82%
    07:00 +12°C° 0,8 mm 9 m/S 743 mmHg 87%
    08:00 +12°C° 0,8 mm 9 m/S 743 mmHg 92%
    09:00 +12°C° 1 mm 10 m/S 743 mmHg 88%
    10:00 +12°C° 1 mm 10 m/S 743 mmHg 84%
    11:00 +12°C° 1 mm 11 m/S 743 mmHg 80%
    12:00 +13°C° 0,3 mm 12 m/S 743 mmHg 72%
    13:00 +14°C° 0,3 mm 12 m/S 743 mmHg 65%
    14:00 +15°C° 0,3 mm 13 m/S 742 mmHg 57%
    15:00 +14°C° 0,5 mm 12 m/S 743 mmHg 64%
    16:00 +13°C° 0,5 mm 11 m/S 744 mmHg 72%
    17:00 +12°C° 0,5 mm 11 m/S 744 mmHg 79%
    18:00 +12°C° 0,3 mm 10 m/S 746 mmHg 80%
    19:00 +11°C° 0,3 mm 10 m/S 747 mmHg 81%
    20:00 +11°C° 0,3 mm 10 m/S 748 mmHg 81%
    21:00 +9°C° 0,1 mm 10 m/S 748 mmHg 79%
    22:00 +9°C° 0,1 mm 10 m/S 749 mmHg 77%
    23:00 +9°C° 0,1 mm 10 m/S 750 mmHg 75%

    23 September, Samstag

    Zeit Temperatur Niederschläge Wind Luftdruck Luftfeuchtigkeit
    00:00 +9°C° 0,3 mm 10 m/S 750 mmHg 77%
    01:00 +8°C° 0,3 mm 10 m/S 750 mmHg 79%
    02:00 +8°C° 0,3 mm 10 m/S 750 mmHg 82%
    03:00 +8°C° 0,2 mm 10 m/S 750 mmHg 77%
    04:00 +8°C° 0,2 mm 10 m/S 751 mmHg 73%
    05:00 +8°C° 0,2 mm 10 m/S 751 mmHg 68%
    06:00 +8°C° 0,1 mm 9 m/S 752 mmHg 68%
    07:00 +10°C° 0,1 mm 9 m/S 752 mmHg 67%
    08:00 +10°C° 0,1 mm 9 m/S 753 mmHg 66%
    09:00 +11°C° 0,1 mm 9 m/S 753 mmHg 62%
    10:00 +12°C° 0,1 mm 9 m/S 753 mmHg 57%
    11:00 +13°C° 0,1 mm 9 m/S 754 mmHg 53%
    12:00 +13°C° 0,1 mm 9 m/S 754 mmHg 54%
    13:00 +13°C° 0,1 mm 8 m/S 753 mmHg 54%
    14:00 +13°C° 0,1 mm 8 m/S 753 mmHg 55%
    15:00 +12°C° 0,1 mm 7 m/S 753 mmHg 58%
    16:00 +12°C° 0,1 mm 7 m/S 753 mmHg 60%
    17:00 +11°C° 0,1 mm 6 m/S 753 mmHg 62%
    18:00 +12°C° 0,1 mm 5 m/S 754 mmHg 67%
    19:00 +10°C° 0,1 mm 5 m/S 754 mmHg 71%
    20:00 +10°C° 0,1 mm 4 m/S 754 mmHg 75%
    21:00 +8°C° 0,2 mm 4 m/S 753 mmHg 80%
    22:00 +9°C° 0,2 mm 3 m/S 753 mmHg 84%
    23:00 +8°C° 0,2 mm 3 m/S 752 mmHg 89%

    24 September, Sonntag

    Zeit Temperatur Niederschläge Wind Luftdruck Luftfeuchtigkeit
    00:00 +7°C° 0,2 mm 3 m/S 752 mmHg 89%
    01:00 +7°C° 0,2 mm 3 m/S 751 mmHg 88%
    02:00 +5°C° 0,2 mm 3 m/S 750 mmHg 88%
    03:00 +5°C° 0,1 mm 4 m/S 750 mmHg 88%
    04:00 +5°C° 0,1 mm 4 m/S 750 mmHg 87%
    05:00 +5°C° 0,1 mm 4 m/S 749 mmHg 87%
    06:00 +7°C° 0,1 mm 4 m/S 749 mmHg 85%
    07:00 +8°C° 0,1 mm 5 m/S 749 mmHg 82%
    08:00 +9°C° 0,1 mm 5 m/S 749 mmHg 80%
    09:00 +10°C° 0,4 mm 6 m/S 748 mmHg 80%
    10:00 +11°C° 0,4 mm 6 m/S 748 mmHg 81%
    11:00 +13°C° 0,4 mm 6 m/S 747 mmHg 81%
    12:00 +11°C° 1,2 mm 6 m/S 747 mmHg 82%
    13:00 +11°C° 1,2 mm 6 m/S 746 mmHg 83%
    14:00 +11°C° 1,2 mm 6 m/S 746 mmHg 83%
    15:00 +11°C° 0,4 mm 6 m/S 746 mmHg 80%
    16:00 +11°C° 0,4 mm 6 m/S 746 mmHg 76%
    17:00 +11°C° 0,4 mm 6 m/S 746 mmHg 73%
    18:00 +10°C° 0,2 mm 6 m/S 746 mmHg 75%
    19:00 +9°C° 0,2 mm 5 m/S 747 mmHg 77%
    20:00 +8°C° 0,2 mm 5 m/S 747 mmHg 79%
    21:00 +7°C° 0,2 mm 5 m/S 747 mmHg 82%
    22:00 +7°C° 0,2 mm 4 m/S 747 mmHg 84%
    23:00 +6°C° 0,2 mm 4 m/S 747 mmHg 87%

    25 September, Montag

    Zeit Temperatur Niederschläge Wind Luftdruck Luftfeuchtigkeit
    00:00 +6°C° 0,1 mm 4 m/S 746 mmHg 87%
    01:00 +7°C° 0,1 mm 3 m/S 746 mmHg 87%
    02:00 +7°C° 0,1 mm 3 m/S 746 mmHg 87%
    03:00 +7°C° 0,1 mm 3 m/S 746 mmHg 87%
    04:00 +7°C° 0,1 mm 2 m/S 746 mmHg 86%
    05:00 +7°C° 0,1 mm 2 m/S 746 mmHg 86%
    06:00 +8°C° 0,1 mm 2 m/S 746 mmHg 84%
    07:00 +8°C° 0,1 mm 2 m/S 746 mmHg 81%
    08:00 +9°C° 0,1 mm 2 m/S 746 mmHg 78%
    09:00 +10°C° 0,1 mm 2 m/S 746 mmHg 71%
    10:00 +13°C° 0,1 mm 2 m/S 746 mmHg 65%
    11:00 +13°C° 0,1 mm 3 m/S 746 mmHg 58%
    12:00 +14°C° 0,2 mm 3 m/S 746 mmHg 57%
    13:00 +14°C° 0,2 mm 4 m/S 745 mmHg 57%
    14:00 +15°C° 0,2 mm 5 m/S 745 mmHg 56%
    15:00 +14°C° 0,9 mm 6 m/S 745 mmHg 66%
    16:00 +11°C° 0,9 mm 7 m/S 746 mmHg 76%
    17:00 +10°C° 0,9 mm 8 m/S 746 mmHg 86%
    18:00 +10°C° 1,2 mm 8 m/S 747 mmHg 87%
    19:00 +10°C° 1,2 mm 8 m/S 748 mmHg 89%
    20:00 +8°C° 1,2 mm 9 m/S 748 mmHg 90%
    21:00 +8°C° 1,3 mm 9 m/S 749 mmHg 90%
    22:00 +8°C° 1,3 mm 9 m/S 749 mmHg 89%
    23:00 +8°C° 1,3 mm 10 m/S 749 mmHg 88%
    Mehr zeigen